Regional Weather Roundup
Issued by NWS

Home | Current Version | Previous Version | Text Only | Print | Product List | Glossary Off
Versions: 1 2 3 4 5 6 7 8 9 10 11 12 13 14 15 16 17 18 19 20 21 22 23 24 25 26 27 28 29 30 31 32 33 34 35 36 37 38 39 40 41 42 43 44 45 46 47 48 49 50

000
ASUS43 KLMK 040902
RWRKY
KENTUCKY REGIONAL WEATHER ROUNDUP
NATIONAL WEATHER SERVICE LOUISVILLE KY
500 AM EDT FRI SEP 04 2015

NOTE "FAIR" INDICATES FEW OR NO CLOUDS BELOW 12,000 FEET
WITH NO SIGNIFICANT WEATHER AND/OR OBSTRUCTIONS TO VISIBILITY.

KYZ001>023-026-027-061>063-070>075-041000-
WESTERN AND SOUTH CENTRAL KENTUCKY

CITY           SKY/WX    TMP DP  RH WIND       PRES   REMARKS
PADUCAH        CLEAR     67  65  93 CALM      29.97S FOG
HENDERSON      CLEAR     66  63  88 CALM      29.97S
OWENSBORO      CLEAR     71  69  93 CALM      29.99R
HOPKINSVILLE   CLEAR     68  66  93 NE3       29.98R
BOWLING GREEN  CLEAR     69  67  93 CALM      30.00R FOG
GLASGOW        CLEAR     65  65 100 CALM      30.00S FOG
$$

KYZ024-025-028>034-038-045-046-053-041000-
NORTH CENTRAL KENTUCKY

CITY           SKY/WX    TMP DP  RH WIND       PRES   REMARKS
LOUISVILLE/SDF CLEAR     75  68  78 S3        29.99R HAZE
LOUISVILLE/LOU CLEAR     73  68  84 CALM      30.00R
FORT KNOX      CLEAR     66  65  95 CALM      29.99R FOG
$$

KYZ035>037-039>044-047>052-055>060-089>105-041000-
NORTHEAST KENTUCKY

CITY           SKY/WX    TMP DP  RH WIND       PRES   REMARKS
LEXINGTON      CLEAR     68  65  90 CALM      30.02R FOG
COVINGTON      PTCLDY    69  66  90 CALM      30.01R
FRANKFORT      CLEAR     67  64  90 CALM      30.01R FOG
$$

KYZ054-064>069-076>088-106>120-041000-
SOUTHEAST KENTUCKY

CITY           SKY/WX    TMP DP  RH WIND       PRES   REMARKS
JACKSON        CLEAR     70  66  87 CALM      30.04R
LONDON         CLEAR     67  63  87 CALM      30.04R FOG
SOMERSET       NOT AVBL
MIDDLESBORO    FOG       64  64 100 CALM      30.06R VSB 1/4
MONTICELLO     SUNNY     64  64 100 CALM      30.05S FOG
$$




USA.gov is the U.S. government's official web portal to all federal, state and local government web resources and services.